Regional Weather Roundup
Issued by NWS

Home | Current Version | Previous Version | Text Only | Print | Product List | Glossary Off
Versions: 1 2 3 4 5 6 7 8 9 10 11 12 13 14 15 16 17 18 19 20 21 22 23 24 25 26 27 28 29 30 31 32 33 34 35 36 37 38 39 40 41 42 43 44 45 46 47 48 49 50

000
ASUS43 KMPX 230001
RWRMN
WEATHER ROUNDUP FOR MINNESOTA
NATIONAL WEATHER SERVICE TWIN CITIES/CHANHASSEN MN
700 PM CDT TUE AUG 22 2017


NOTE: "FAIR" INDICATES FEW OR NO CLOUDS BELOW 12,000 FEET WITH NO
SIGNIFICANT WEATHER AND/OR OBSTRUCTIONS TO VISIBILITY. N/A MEANS
CURRENT SKY AND/OR WEATHER CONDITIONS ARE NOT AVAILABLE.

MNZ060>063-068>070-230100-
   Twin Cities Metro

CITY           SKY/WX    TMP DP  RH WIND       PRES   REMARKS
TWIN CITIES    MOSUNNY   71  47  42 NW12G25   30.03F
6HR MIN TEMP:  71; 6HR MAX TEMP:  76;

ST PAUL        MOSUNNY   71  47  42 NW14G29   30.03S
CRYSTAL        MOSUNNY   71  46  40 W12       30.02S
BLAINE         MOSUNNY   73  48  40 NW9       30.03S
LAKEVILLE      SUNNY     68  50  52 W6        30.05R
EDEN PRAIRIE   SUNNY     73  48  41 NW12G20   30.03F
6HR MIN TEMP:  73; 6HR MAX TEMP:  77;

SOUTH ST PAUL  MOSUNNY   72  45  37 NW10G16   30.03R
LAKE ELMO      FAIR      70  48  46 W10G20    30.03F
$$
MNZ001>005-007-008-013>017-022>024-027-028-230100-
   Northwest Minnesota

CITY           SKY/WX    TMP DP  RH WIND       PRES   REMARKS
BEMIDJI        CLOUDY    64  50  59 NW9       30.02F
HALLOCK        MOSUNNY   72  48  43 N14G23    30.04S
ROSEAU         SUNNY     66  54  63 N9        30.03S
WARROAD        SUNNY     64  55  72 NW14G20   30.03S
CROOKSTON      SUNNY     72  43  35 N13       30.05S
FOSSTON        MOSUNNY   72  41  33 NW14G20   30.05S
DETROIT LAKES  SUNNY     70  43  37 NW12G21   30.07S
MOORHEAD       SUNNY     73  41  31 NW14      30.07S
PARK RAPIDS    SUNNY     70  44  39 NW15      30.03F
MAHNOMEN       FAIR      69  44  40 NW14G21   30.05S
$$
MNZ006-009>011-018-025>026-230100-
   North Central Minnesota

CITY           SKY/WX    TMP DP  RH WIND       PRES   REMARKS
BAUDETTE       SUNNY     64  53  67 N9        30.00S
FLAG ISLAND    MOSUNNY   64  50  59 NW12      30.00S
INTL FALLS     SUNNY     63  48  58 NW12      29.97R
6HR MIN TEMP:  60; 6HR MAX TEMP:  67; 6HR PCP: TRACE;

WASKISH        SUNNY     64  54  68 N9G16     30.01S
BIG FORK       MOSUNNY   64  54  68 NW3       29.99S
LONGVILLE      CLOUDY    66  45  45 W9G17     30.01S
GRAND RAPIDS   PTSUNNY   65  51  60 NW14      30.01R
CRANE LAKE     PTSUNNY   63  54  72 N7        29.95S
ORR            MOSUNNY   61  54  77 NW9       29.94R
COOK           SUNNY     61  54  77 W7        29.96S
WALKER         MOCLDY    67  46  46 NW12G17   30.02S
$$
MNZ012-019>021-037-230100-
   Northeast Minnesota

CITY           SKY/WX    TMP DP  RH WIND       PRES   REMARKS
DULUTH         MOSUNNY   63  54  72 NW15      29.96S
6HR MIN TEMP:  59; 6HR MAX TEMP:  68; 6HR PCP:  0.01;

ELY            PTSUNNY   57  55  94 NW5       29.94S
HIBBING        MOSUNNY   59  54  83 NW12      29.97R
EVELETH        MOSUNNY   63  44  50 NW15G25   29.97R
DULUTH HARBOR  MOSUNNY   68  57  68 W13       29.95S
TWO HARBORS    CLEAR     66  55  68 NW8       29.92R
SILVER BAY     PTCLDY    63  55  77 CALM      29.91R
GRAND MARAIS     N/A     60  55  83 W3        29.87S
$$
MNZ029>031-032-039>041-046>048-054>057-064-230100-
   West Central Minnesota

CITY           SKY/WX    TMP DP  RH WIND       PRES   REMARKS
FERGUS FALLS   MOSUNNY   70  48  46 NW9       30.06F
WHEATON        SUNNY     72  46  40 W7        30.10F
MORRIS         SUNNY     72  46  40 NW10      30.08S
ALEXANDRIA     SUNNY     69  47  45 NW12      30.08F
ELBOW LAKE     FAIR      69  48  47 NW10      30.08S
WADENA         SUNNY     68  43  40 NW9       30.05S
GLENWOOD       SUNNY     70  46  43 NW10      30.08F
APPLETON       SUNNY     72  46  40 NW9       30.09S
BENSON         SUNNY     72  46  40 N9        30.10S
ORTONVILLE     SUNNY     72  46  40 MISG      30.10S
MADISON        SUNNY     73  52  46 NW7       30.10S
WILLMAR        FAIR      70  52  52 NW7       30.09F
$$
MNZ033>034-036-042>043-049>051-058-059-230100-
   Central Minnesota

CITY           SKY/WX    TMP DP  RH WIND       PRES   REMARKS
ST CLOUD       SUNNY     71  47  42 NW10      30.03F
6HR MIN TEMP:  70; 6HR MAX TEMP:  74;

SAUK CENTRE    FAIR      70  47  43 W9        30.06F
PAYNESVILLE    SUNNY     70  48  46 NW8       30.07F
AITKIN         SUNNY     66  46  48 W5        30.00S
PINE RIVER     SUNNY     66  45  45 NW10G16   30.05S
BRAINERD       SUNNY     70  42  36 NW12      30.02S
STAPLES        MOSUNNY   68  45  42 NW8       30.04S
LONG PRAIRIE   FAIR      68  45  42 W12       30.06F
LITTLE FALLS   SUNNY     70  43  37 W10G18    30.04S
LITCHFIELD     SUNNY     72  48  43 NW8G17    30.08S
BUFFALO        SUNNY     71  46  41 W10       30.05F
MAPLE LAKE     SUNNY     71  50  48 W8        30.05F
HUTCHINSON     SUNNY     70  51  51 W6        30.08F
$$
MNZ037-044-045-052-053-230100-
   East Central Minnesota

CITY           SKY/WX    TMP DP  RH WIND       PRES   REMARKS
PRINCETON      SUNNY     72  48  43 W12G20    30.03S
MORA           SUNNY     68  46  45 NW7       30.02F
CAMBRIDGE      SUNNY     73  54  49 W8        30.02S
RUSH CITY      SUNNY     66  49  54 NW3       30.01S
MOOSE LAKE     CLOUDY    66  46  48 W5        29.97S
HINCKLEY       MOCLDY    68  50  52 W7        30.00S
CLOQUET        MOSUNNY   66  46  48 NW7       29.97S
MCGREGOR       PTSUNNY   68  46  45 W8        30.00S
$$
MNZ071>073-080-081-089-090-097-098-230100-
   Southwest Minnesota

CITY           SKY/WX    TMP DP  RH WIND       PRES   REMARKS
MONTEVIDEO     SUNNY     72  48  43 N7        30.10S
GRANITE FALLS  SUNNY     72  52  48 NW7       30.11S
CANBY          SUNNY     72  50  45 CALM      30.12S
MARSHALL       SUNNY     69  52  54 NW8       30.11S
REDWOOD FALLS  SUNNY     71  46  40 NW10      30.09S
OLIVIA         SUNNY     70  50  49 NW8       30.09S
PIPESTONE      SUNNY     72  45  37 N10G16    30.14S
WINDOM         SUNNY     70  50  49 NW9       30.12S
WORTHINGTON    SUNNY     69  50  50 NW10      30.13F
JACKSON        SUNNY     68  50  52 NW5       30.12S
TRACY          SUNNY     70  54  57 N6        30.12S
SLAYTON        SUNNY     69  45  40 NW9       30.14S
$$
MNZ065>067-074>077-082>085-091>093-230100-
   South Central Minnesota

CITY           SKY/WX    TMP DP  RH WIND       PRES   REMARKS
MANKATO        SUNNY     69  50  50 NW9       30.08S
NEW ULM        SUNNY     70  48  46 NW9       30.09S
ST JAMES       SUNNY     70  52  52 NW6       30.11S
FAIRMONT       SUNNY     70  49  47 NW10      30.10F
GLENCOE        SUNNY     70  53  54 W9        30.07S
FARIBAULT      SUNNY     70  50  49 W8        30.07R
OWATONNA       SUNNY     68  52  56 NW10      30.07S
WASECA         SUNNY     66  50  55 NW7       30.09S
ALBERT LEA     SUNNY     72  52  49 NW7       30.08F
$$
MNZ078>079-086>088-094>096-230100-
   Southeast Minnesota

CITY           SKY/WX    TMP DP  RH WIND       PRES   REMARKS
ROCHESTER      SUNNY     66  51  58 NW12      30.06S
6HR MIN TEMP:  66; 6HR MAX TEMP:  71;

RED WING       SUNNY     72  45  37 NW5       30.01S
STANTON        SUNNY     70  49  48 NW9       30.03S
DODGE CENTER   SUNNY     68  46  45 NW13G18   30.07R
WINONA         MOCLDY    72  52  49 NW9       30.01S
AUSTIN         MOSUNNY   68  48  49 NW10G17   30.07S
PRESTON        CLEAR     67  49  53 NW9       30.05F
$$
ABBREVIATIONS USED IN REMARKS
   TC - TEMPERATURES IN CELSIUS
  WCI - WIND CHILL INDEX
   HX - HEAT INDEX
  VSB - VISIBILITY
$$




USA.gov is the U.S. government's official web portal to all federal, state and local government web resources and services.